Westfield, MA

6:16 AM EST on February 26, 2017 (GMT -0500)
Barnes Municipal

Weather History for KBAF - December, 2012

Change the Weather History Date:

Friday, December 7, 2012

  Actual Average Record
Temperature  
Mean Temperature 28 °F -  
Max Temperature 37 °F 39 °F 72 °F (1998)
Min Temperature 19 °F 22 °F 0 °F (2002)
Degree Days  
Heating Degree Days 37    
Moisture  
Dew Point 29 °F    
Average Humidity 85    
Maximum Humidity 93    
Minimum Humidity 67    
Precipitation  
Precipitation 0.06 in - - ()
Sea Level Pressure  
Sea Level Pressure 30.13 in    
Wind  
Wind Speed 1 mph (South)    
Max Wind Speed 7 mph    
Max Gust Speed -    
Visibility 5 miles    
Events Fog , Rain    
Averages and records for this station are not official NWS values.
T = Trace of Precipitation, MM = Missing Value Source: NWS Daily Summary

Daily Weather History Graph

Daily Weather History Graph

Search for Another Location

Airport or City:

Trip Planner

Search our weather history database for the weather conditions in past years. The results will help you decide how hot, cold, wet, or windy it might be!

Date:

Astronomy

Dec. 07, 2012 Rise Set
Actual Time 7:06 AM EST 4:18 PM EST
Civil Twilight 6:34 AM EST 4:50 PM EST
Nautical Twilight 5:59 AM EST 5:25 PM EST
Astronomical Twilight 5:25 AM EST 5:59 PM EST
Moon 12:16 AM EST (12/7) 12:19 PM EST (12/7)
Length of Visible Light 10h 15m
Length of Day
9h 12m
Last Quarter, 39% of the Moon is Illuminated
Dec 7
Last Quarter
Dec 13
New
Dec 20
First Quarter
Dec 28
Full
Jan 4
Last Quarter

Hourly Weather History & Observations

Time (EST) Temp. Windchill Dew Point Humidity Pressure Visibility Wind Dir Wind Speed Gust Speed Precip Events Conditions
12:53 AM 19.9 °F - 16.0 °F 85% 30.29 in 9.0 mi Calm Calm - N/A   Clear
1:53 AM 21.0 °F - 16.0 °F 81% 30.30 in 10.0 mi Calm Calm - N/A   Clear
2:53 AM 21.0 °F - 17.1 °F 85% 30.27 in 10.0 mi Calm Calm - N/A   Clear
3:53 AM 21.0 °F - 17.1 °F 85% 30.26 in 10.0 mi Calm Calm - N/A   Clear
4:53 AM 21.9 °F - 18.0 °F 85% 30.24 in 10.0 mi Calm Calm - N/A   Clear
5:53 AM 21.0 °F 16.2 °F 16.0 °F 81% 30.25 in 10.0 mi East 3.5 mph - N/A   Clear
6:53 AM 21.9 °F - 17.1 °F 82% 30.24 in 10.0 mi Calm Calm - N/A   Clear
7:53 AM 23.0 °F - 18.0 °F 81% 30.25 in 10.0 mi Calm Calm - N/A   Clear
8:25 AM 24.8 °F - 19.4 °F 80% 30.22 in 10.0 mi Calm Calm - N/A   Mostly Cloudy
8:53 AM 26.1 °F - 21.0 °F 81% 30.25 in 10.0 mi Calm Calm - N/A   Overcast
9:53 AM 30.0 °F 25.2 °F 23.0 °F 75% 30.23 in 10.0 mi South 4.6 mph - N/A   Overcast
10:22 AM 33.8 °F 30.8 °F 24.8 °F 70% 30.19 in 9.0 mi South 3.5 mph - N/A   Scattered Clouds
10:53 AM 35.1 °F 31.0 °F 25.0 °F 67% 30.20 in 10.0 mi SW 4.6 mph - N/A   Clear
11:53 AM 36.0 °F 30.3 °F 26.1 °F 67% 30.17 in 10.0 mi SSE 6.9 mph - N/A   Overcast
12:53 PM 37.9 °F 33.5 °F 30.0 °F 73% 30.15 in 10.0 mi South 5.8 mph - 0.00 in   Overcast
1:41 PM 37.4 °F 32.8 °F 32.0 °F 81% 30.11 in 3.0 mi South 5.8 mph - 0.00 in Rain Light Rain
1:53 PM 37.0 °F 33.3 °F 33.1 °F 86% 30.13 in 3.0 mi South 4.6 mph - 0.01 in Rain Light Rain
2:10 PM 37.4 °F 33.8 °F 32.0 °F 81% 30.10 in 3.0 mi SSE 4.6 mph - 0.01 in Rain Light Rain
2:53 PM 37.0 °F 34.5 °F 33.1 °F 86% 30.12 in 3.0 mi South 3.5 mph - 0.02 in   Overcast
3:53 PM 37.0 °F - 34.0 °F 89% 30.10 in 2.5 mi Calm Calm - 0.00 in Rain Light Rain
4:07 PM 35.6 °F - 33.8 °F 93% 30.08 in 2.0 mi Calm Calm - 0.00 in Rain Light Rain
4:53 PM 36.0 °F - 33.1 °F 89% 30.09 in 2.0 mi Calm Calm - 0.00 in   Overcast
5:10 PM 35.6 °F 32.8 °F 33.8 °F 93% 30.07 in 3.0 mi SSW 3.5 mph - 0.01 in Rain Light Rain
5:29 PM 37.4 °F - 33.8 °F 87% 30.06 in 3.0 mi Calm Calm - 0.01 in Rain Light Rain
5:38 PM 37.4 °F - 33.8 °F 87% 30.07 in 2.5 mi Calm Calm - 0.01 in Rain Light Rain
5:48 PM 37.4 °F - 33.8 °F 87% 30.07 in 4.0 mi Calm Calm - 0.01 in Rain Light Rain
5:53 PM 37.0 °F - 33.1 °F 86% 30.09 in 3.0 mi Calm Calm - 0.01 in Rain Light Rain
6:01 PM 37.4 °F - 33.8 °F 87% 30.06 in 1.8 mi Calm Calm - 0.01 in Rain Light Rain
6:20 PM 37.4 °F - 33.8 °F 87% 30.06 in 3.0 mi Calm Calm - 0.01 in Rain Light Rain
6:29 PM 37.4 °F - 33.8 °F 87% 30.06 in 2.0 mi Calm Calm - 0.01 in Rain Light Rain
6:37 PM 35.6 °F - 33.8 °F 93% 30.06 in 1.5 mi Calm Calm - 0.01 in Rain Light Rain
6:53 PM 36.0 °F - 34.0 °F 93% 30.09 in 1.2 mi Calm Calm - 0.01 in   Overcast
7:11 PM 37.4 °F - 33.8 °F 87% 30.06 in 2.0 mi Calm Calm - N/A   Overcast
7:26 PM 37.4 °F - 33.8 °F 87% 30.06 in 1.8 mi Calm Calm - N/A   Overcast
7:33 PM 37.4 °F - 33.8 °F 87% 30.07 in 2.5 mi Calm Calm - N/A   Overcast
7:53 PM 37.0 °F - 34.0 °F 89% 30.09 in 2.0 mi Calm Calm - N/A   Overcast
8:28 PM 37.4 °F - 33.8 °F 87% 30.07 in 3.0 mi Calm Calm - N/A   Overcast
8:45 PM 37.4 °F - 35.6 °F 93% 30.06 in 1.8 mi Calm Calm - N/A   Overcast
8:53 PM 37.0 °F - 34.0 °F 89% 30.08 in 1.2 mi Calm Calm - N/A   Overcast
9:15 PM 37.4 °F - 33.8 °F 87% 30.05 in 2.5 mi Calm Calm - N/A   Overcast
9:53 PM 37.0 °F - 35.1 °F 93% 30.06 in 2.5 mi Calm Calm - 0.00 in Rain Light Rain
10:19 PM 37.4 °F - 35.6 °F 93% 30.04 in 1.8 mi Calm Calm - 0.00 in Rain Light Rain
10:53 PM 37.0 °F - 35.1 °F 93% 30.06 in 1.8 mi Calm Calm - 0.01 in Rain Light Rain
11:39 PM 37.4 °F - 35.6 °F 93% 30.03 in 0.8 mi Calm Calm - 0.00 in Rain Light Rain
11:53 PM 37.0 °F - 35.1 °F 93% 30.04 in 0.5 mi Calm Calm - 0.00 in Fog , Rain Light Rain